sat.trackr.live / text

‹ back to catalog

STARLINK-36427

NORAD 67333 · 2026-002AE

PAYLOAD ACTIVE UNKNOWN

§ Identity

Operator
Country
US
Launch date
2026-01-04
Launch site
AFETR
Launch vehicle
Mass (kg)
RCS (m²)

Purposes: comms

External: N2YO · Heavens-Above · Gunter

§ Orbital elements

Epoch: 2026-05-25T00:45:17.089056Z

Period
94.27 min
Inclination
43.0023°
Eccentricity
0.0002126
Mean motion
15.27586798 rev/d
Perigee alt
481.6 km
Apogee alt
484.5 km
Semi-major
6,861.2 km
B*
3.5352e-4
RAAN
254.1795°
Arg perigee
279.1476°
Mean anomaly
80.9135°
Rev number
2,281

§ Raw data

STARLINK-364271 67333U 26002AE  26145.03144779  .00009480  00000+0  35352-3 0  99962 67333  43.0023 254.1795 0002126 279.1476  80.9135 15.27586798 22813

JSON: /api/v1/satellites/67333 · /tle

For live sub-satellite position, see the globe view (requires WebGL).

§ Visibility from observer

Set your observer location to see the next 7 days of passes ≥ 10°. The values pass through the URL so the page stays shareable.

No JS? Fill the form by hand. The geolocation button needs JavaScript.